Weather History for Paducah, KY

Change the Weather History Date:

Saturday, February 11, 2012

  Actual Average Record
Temperature  
Mean Temperature 26 °F 38 °F  
Max Temperature 30 °F 48 °F 73 °F (1999)
Min Temperature 22 °F 28 °F 2 °F (2011)
Degree Days  
Heating Degree Days 39 27  
Month to date heating degree days 256 309  
Since 1 July heating degree days 2428 2882  
Cooling Degree Days 0 0  
Month to date cooling degree days 0 0  
Year to date cooling degree days 0 0  
Moisture  
Dew Point 11 °F    
Average Humidity 56    
Maximum Humidity 77    
Minimum Humidity 35    
Precipitation  
Precipitation 0.01 in 0.14 in 1.86 in (1965)
Month to date precipitation 1.16 1.55  
Year to date precipitation 4.71 5.23  
Snow  
Snow 0.20 in 0.10 in 2.70 in (1985)
Month to date snowfall 0.2 1.4  
Since 1 July snowfall 0.6 6.7  
Snow Depth 0.00 in    
Sea Level Pressure  
Sea Level Pressure 30.42 in    
Wind  
Wind Speed 12 mph (NNW)    
Max Wind Speed 25 mph    
Max Gust Speed 36 mph    
Visibility 8 miles    
Events Snow    
T = Trace of Precipitation, MM = Missing Value Source: NWS Daily Summary

Daily Weather History Graph

Daily Weather History Graph

Search for Another Location

Airport:

Trip Planner

Search our weather history database for the weather conditions in past years. The results will help you decide how hot, cold, wet, or windy it might be!

Date:

Astronomy

Feb. 11, 2012 Rise Set
Actual Time 6:48 AM CST 5:30 PM CST
Civil Twilight 6:21 AM CST 5:57 PM CST
Nautical Twilight 5:51 AM CST 6:27 PM CST
Astronomical Twilight 5:21 AM CST 6:58 PM CST
Moon 10:09 PM CST (2/11) 8:38 AM CST (2/11)
Length of Visible Light 11h 35m
Length of Day
10h 41m
Waning Gibbous, 82% of the Moon is Illuminated
Feb 11
Waning Gibbous
Feb 14
Last Quarter
Feb 21
New
Feb 29
First Quarter
Mar 8
Full

Hourly Weather History & Observations

Time (CST) Temp. Windchill Dew Point Humidity Pressure Visibility Wind Dir Wind Speed Gust Speed Precip Events Conditions
12:53 AM 27.0 °F 12.5 °F 17.1 °F 66% 30.20 in 10.0 mi North 23.0 mph 35.7 mph N/A   Mostly Cloudy
1:53 AM 26.1 °F 12.3 °F 14.0 °F 60% 30.23 in 10.0 mi North 19.6 mph 32.2 mph N/A   Overcast
2:53 AM 25.0 °F 13.1 °F 14.0 °F 63% 30.26 in 10.0 mi NNW 13.8 mph 21.9 mph N/A   Mostly Cloudy
3:53 AM 24.1 °F 10.6 °F 10.9 °F 57% 30.29 in 10.0 mi North 17.3 mph 34.5 mph N/A   Scattered Clouds
4:53 AM 24.1 °F 11.5 °F 12.0 °F 60% 30.33 in 10.0 mi North 15.0 mph 23.0 mph N/A   Partly Cloudy
5:53 AM 23.0 °F 10.6 °F 17.1 °F 78% 30.36 in 1.8 mi NNW 13.8 mph 21.9 mph 0.00 in Snow Light Snow
6:08 AM 23.0 °F 11.7 °F 17.6 °F 80% 30.36 in 3.0 mi NNW 11.5 mph 19.6 mph 0.00 in Snow Light Snow
6:26 AM 23.0 °F 11.7 °F 17.6 °F 80% 30.37 in 1.8 mi North 11.5 mph - 0.00 in Snow Light Snow
6:36 AM 21.2 °F 9.5 °F 17.6 °F 86% 30.38 in 1.2 mi NNW 11.5 mph - 0.00 in Snow Light Snow
6:41 AM 21.2 °F 8.9 °F 17.6 °F 86% 30.38 in 2.0 mi NNW 12.7 mph - 0.00 in Snow Light Snow
6:50 AM 21.2 °F 9.5 °F 15.8 °F 80% 30.39 in 8.0 mi NNW 11.5 mph 19.6 mph 0.00 in Snow Light Snow
6:53 AM 21.9 °F 10.4 °F 16.0 °F 78% 30.40 in 8.0 mi NNW 11.5 mph 19.6 mph 0.00 in Snow Light Snow
7:05 AM 23.0 °F 10.6 °F 17.6 °F 80% 30.39 in 9.0 mi NNW 13.8 mph - 0.01 in   Overcast
7:22 AM 23.0 °F 10.6 °F 15.8 °F 74% 30.40 in 10.0 mi NNW 13.8 mph 21.9 mph 0.01 in   Overcast
7:51 AM 23.0 °F 9.2 °F 10.4 °F 59% 30.42 in 10.0 mi NNW 17.3 mph 26.5 mph 0.01 in   Overcast
7:53 AM 21.9 °F 9.2 °F 10.0 °F 60% 30.43 in 10.0 mi NNW 13.8 mph 26.5 mph 0.01 in   Overcast
8:53 AM 21.9 °F 8.7 °F 10.0 °F 60% 30.45 in 10.0 mi NW 15.0 mph 24.2 mph N/A   Mostly Cloudy
9:53 AM 24.1 °F 11.0 °F 10.9 °F 57% 30.48 in 10.0 mi NNW 16.1 mph 23.0 mph N/A   Clear
10:53 AM 26.1 °F 14.0 °F 8.1 °F 47% 30.49 in 10.0 mi NW 15.0 mph 20.7 mph N/A   Clear
11:53 AM 26.1 °F 14.0 °F 5.0 °F 41% 30.48 in 10.0 mi NNW 15.0 mph 25.3 mph N/A   Clear
12:53 PM 27.0 °F 14.3 °F 5.0 °F 39% 30.47 in 10.0 mi NNW 17.3 mph 27.6 mph N/A   Clear
1:53 PM 28.9 °F 17.7 °F 5.0 °F 36% 30.48 in 10.0 mi NW 15.0 mph 24.2 mph N/A   Clear
2:53 PM 30.0 °F 21.7 °F 6.1 °F 36% 30.48 in 10.0 mi NNW 9.2 mph 24.2 mph N/A   Clear
3:53 PM 28.9 °F 18.2 °F 6.1 °F 38% 30.48 in 10.0 mi NW 13.8 mph 20.7 mph N/A   Clear
4:53 PM 28.0 °F 17.0 °F 5.0 °F 38% 30.50 in 10.0 mi NW 13.8 mph - N/A   Clear
5:53 PM 26.1 °F 16.8 °F 5.0 °F 41% 30.51 in 10.0 mi NW 9.2 mph - N/A   Clear
6:53 PM 26.1 °F 16.8 °F 5.0 °F 41% 30.52 in 10.0 mi NNW 9.2 mph - N/A   Clear
7:53 PM 25.0 °F 15.5 °F 6.1 °F 45% 30.53 in 10.0 mi NNW 9.2 mph - N/A   Clear
8:53 PM 24.1 °F 17.0 °F 5.0 °F 44% 30.53 in 10.0 mi NW 5.8 mph - N/A   Clear
9:53 PM 21.9 °F 15.7 °F 7.0 °F 53% 30.53 in 10.0 mi WNW 4.6 mph - N/A   Clear
10:53 PM 21.9 °F 15.7 °F 7.0 °F 53% 30.53 in 10.0 mi WNW 4.6 mph - N/A   Clear
11:53 PM 23.0 °F 14.7 °F 6.1 °F 48% 30.52 in 10.0 mi NNW 6.9 mph - N/A   Clear